Regional Weather Roundup
Issued by NWS Memphis, TN

Home |  Current Version |  Previous Version |  Text Only |  Print | Product List |  Glossary On
Versions: 1 2 3 4 5 6 7 8 9 10 11 12 13 14 15 16 17 18 19 20 21 22 23 24 25 26 27 28 29 30 31 32 33 34 35 36 37 38 39 40 41 42 43 44 45 46 47 48 49 50
263
ASUS44 KMEG 261410
RWRMEG
MEMPHIS CWA HOURLY WEATHER ROUNDUP
NATIONAL WEATHER SERVICE MEMPHIS TN
900 AM CDT SUN MAY 26 2024

...WEST TENNESSEE...

CITY           SKY/WX    TMP DP  RH WIND       PRES   REMARKS
MEMPHIS INTL   MOSUNNY   79  72  79 SW14G33   29.77R
NWS MEMPHIS      N/A     80 N/A N/A MISG        N/A
FRAYSER        MOSUNNY   80  75  86 S17       29.75R
JACKSON        MOSUNNY   80  71  74 S12       29.78R
COVINGTON      SUNNY     79  75  89 S9G17     29.75R
SOMERVILLE     MOSUNNY   81  72  74 S15G21    29.77R
BOLIVAR        MOSUNNY   79  72  78 S10G18    29.79R
LEXINGTON      MOSUNNY   75  73  94 S9        29.78F
SELMER         SUNNY     77  72  83 VRB6G14   29.80R
SAVANNAH       MOSUNNY   79  77  94 S9G15     29.79S
DYERSBURG      PTSUNNY   78  77  96 SW9G16    29.75S
UNION CITY     CLOUDY    68  68 100 CALM      29.74F
PARIS          CLOUDY    73  73 100 SW10      29.79R
HUNTINGDON     PTSUNNY   73  73 100 S13       29.76R


...EASTERN ARKANSAS...

CITY           SKY/WX    TMP DP  RH WIND       PRES   REMARKS
JONESBORO        N/A    N/A N/A N/A MISG      29.71S
WEST MEMPHIS   MOSUNNY   79  73  82 S20G32    29.75R
BATESVILLE     MOSUNNY   79  72  79 SW16G25   29.70R
NEWPORT        PTSUNNY   80  71  74 SW28G35   29.70F
WALNUT RIDGE   PTSUNNY   79  73  82 S14       29.69R
BLYTHEVILLE    PTSUNNY   80  71  74 S16G24    29.71S
SEARCY         CLOUDY    79  72  79 S14G20    29.73R
STUTTGART      PTSUNNY   79  74  84 S24G31    29.76R
PINE BLUFF     CLOUDY    81  71  71 S17G29    29.76R
MONTICELLO     CLOUDY    81  73  76 SW14G23   29.81R


...NORTH MISSISSIPPI...

CITY           SKY/WX    TMP DP  RH WIND       PRES   REMARKS
TUPELO         MOSUNNY   81  73  76 S13G20    29.81S
OXFORD         PTSUNNY   79  72  78 SW10G24   29.84R
BATESVILLE     PTSUNNY   79  72  78 SW16G24   29.81R
OLIVE BRANCH   PTSUNNY   79  73  83 SW17G29   29.78R
TUNICA         PTSUNNY   80  76  88 S21       29.77S
CLARKSDALE       N/A     81  81 100 S18       29.80S HX  91
CORINTH        MOSUNNY   77  75  94 S8        29.81R
IUKA             N/A     77  76  97 S7        29.83R
GREENWOOD      PTSUNNY   81  72  74 SW16G23   29.85R
COLUMBUS       MOSUNNY   81  73  76 SW15      29.82S
STARKVILLE     CLOUDY    77  75  94 S9G17     29.85R
GOLDEN TRIANGL CLOUDY    79  73  83 S12G22    29.88R


...SOUTHEAST MISSOURI...

CITY           SKY/WX    TMP DP  RH WIND       PRES   REMARKS
KENNETT        PTSUNNY   77 -31   1 CALM      29.70S
MALDEN         DRIZZLE   72  70  94 S7        29.69F
WEST PLAINS    RAIN      64  59  83 N14G28    29.78S
POPLAR BLUFF   CLOUDY    71  69  93 S3        29.66F
CAPE GIRARDEAU LGT RAIN  68  67  96 W6        29.73R


...NORTHWEST ALABAMA...

CITY           SKY/WX    TMP DP  RH WIND       PRES   REMARKS
MUSCLE SHOALS  PTSUNNY   79  72  79 S12G20    29.84R


...MIDDLE TENNESSEE...

CITY           SKY/WX    TMP DP  RH WIND       PRES   REMARKS
NASHVILLE      LGT RAIN  75  69  81 S10       29.83R
CLARKSVILLE    TSTM      72  69  90 S8        29.75F FOG
DICKSON        MOSUNNY   72  72 100 S9        29.76F FOG
COLUMBIA       SUNNY     75  75 100 SE7       29.80S
LAWRENCEBURG   PTSUNNY   73  73 100 S7        29.84R FOG
LEWISBURG      SUNNY     75  75 100 S8        29.86R


...WESTERN KENTUCKY...

CITY           SKY/WX    TMP DP  RH WIND       PRES   REMARKS
PADUCAH        TSTM      67  63  87 S6        29.71F
FORT CAMPBELL  TSTM      72  69  91 S8        29.75


...CENTRAL ARKANSAS...

CITY           SKY/WX    TMP DP  RH WIND       PRES   REMARKS
LITTLE ROCK    PTSUNNY   81  72  74 SW14G29   29.72F


SKY/WX REPORTED AS FAIR MEANS FEW OR NO CLOUDS BELOW
12 THOUSAND FEET.